owner,sensor,date,latitude,longitude,air_pressure(mBar),qcFlag 
COMPS,ioos:station:USF.COMPS:C10:1,2016-02-01T00:05:00Z,27.1690,-82.9260,1031.25,1111122 
COMPS,ioos:station:USF.COMPS:C10:1,2016-02-01T00:35:00Z,27.1690,-82.9260,1031.48,1111122 
COMPS,ioos:station:USF.COMPS:C10:1,2016-02-01T01:05:00Z,27.1690,-82.9260,1031.21,1111122 
COMPS,ioos:station:USF.COMPS:C10:1,2016-02-01T01:35:00Z,27.1690,-82.9260,1031.5,1111122 
COMPS,ioos:station:USF.COMPS:C10:1,2016-02-01T05:05:00Z,27.1690,-82.9260,1031.46,1111122 
COMPS,ioos:station:USF.COMPS:C10:1,2016-02-01T05:35:00Z,27.1690,-82.9260,1031.09,1111122 
COMPS,ioos:station:USF.COMPS:C10:1,2016-02-01T06:05:00Z,27.1690,-82.9260,1031.18,1111122 
COMPS,ioos:station:USF.COMPS:C10:1,2016-02-01T06:35:00Z,27.1690,-82.9260,1031.04,1111122 
COMPS,ioos:station:USF.COMPS:C10:1,2016-02-01T07:05:00Z,27.1690,-82.9260,1029.77,1111122 
COMPS,ioos:station:USF.COMPS:C10:1,2016-02-01T07:35:00Z,27.1690,-82.9260,1029.4,1111122 
COMPS,ioos:station:USF.COMPS:C10:1,2016-02-01T08:05:00Z,27.1690,-82.9260,1030.46,1111122 
COMPS,ioos:station:USF.COMPS:C10:1,2016-02-01T08:35:00Z,27.1690,-82.9260,1030.53,1111122 
COMPS,ioos:station:USF.COMPS:C10:1,2016-02-01T09:05:00Z,27.1690,-82.9260,1030.41,1111122 
COMPS,ioos:station:USF.COMPS:C10:1,2016-02-01T09:35:00Z,27.1690,-82.9260,1030.75,1111122 
COMPS,ioos:station:USF.COMPS:C10:1,2016-02-01T10:05:00Z,27.1690,-82.9260,1030.59,1111122 
COMPS,ioos:station:USF.COMPS:C10:1,2016-02-01T10:35:00Z,27.1690,-82.9260,1030.45,1111122 
COMPS,ioos:station:USF.COMPS:C10:1,2016-02-01T11:05:00Z,27.1690,-82.9260,1030.57,1111122 
COMPS,ioos:station:USF.COMPS:C10:1,2016-02-01T11:35:00Z,27.1690,-82.9260,1030.83,1111122 
COMPS,ioos:station:USF.COMPS:C10:1,2016-02-01T12:05:00Z,27.1690,-82.9260,1031.24,1111122 
COMPS,ioos:station:USF.COMPS:C10:1,2016-02-01T12:35:00Z,27.1690,-82.9260,1031.48,1111122 
COMPS,ioos:station:USF.COMPS:C10:1,2016-02-01T13:05:00Z,27.1690,-82.9260,1031.71,1111122 
COMPS,ioos:station:USF.COMPS:C10:1,2016-02-01T13:35:00Z,27.1690,-82.9260,1031.72,1111122 
COMPS,ioos:station:USF.COMPS:C10:1,2016-02-01T14:05:00Z,27.1690,-82.9260,1031.72,1111122 
COMPS,ioos:station:USF.COMPS:C10:1,2016-02-01T14:35:00Z,27.1690,-82.9260,1032.12,1111122 
COMPS,ioos:station:USF.COMPS:C10:1,2016-02-01T15:05:00Z,27.1690,-82.9260,1032.23,1111122 
COMPS,ioos:station:USF.COMPS:C10:1,2016-02-01T15:35:00Z,27.1690,-82.9260,1032.16,1111122 
COMPS,ioos:station:USF.COMPS:C10:1,2016-02-01T16:05:00Z,27.1690,-82.9260,1032.39,1111122 
COMPS,ioos:station:USF.COMPS:C10:1,2016-02-01T16:35:00Z,27.1690,-82.9260,1032.2,1111122 
COMPS,ioos:station:USF.COMPS:C10:1,2016-02-01T17:05:00Z,27.1690,-82.9260,1031.74,1111122 
COMPS,ioos:station:USF.COMPS:C10:1,2016-02-01T17:35:00Z,27.1690,-82.9260,1031.33,1111122 
COMPS,ioos:station:USF.COMPS:C10:1,2016-02-01T18:05:00Z,27.1690,-82.9260,1030.71,1111122 
COMPS,ioos:station:USF.COMPS:C10:1,2016-02-01T18:35:00Z,27.1690,-82.9260,1030.45,1111122 
COMPS,ioos:station:USF.COMPS:C10:1,2016-02-01T19:05:00Z,27.1690,-82.9260,1030.32,1111122 
COMPS,ioos:station:USF.COMPS:C10:1,2016-02-01T19:35:00Z,27.1690,-82.9260,1030.06,1111122 
COMPS,ioos:station:USF.COMPS:C10:1,2016-02-01T20:05:00Z,27.1690,-82.9260,1029.81,1111122 
COMPS,ioos:station:USF.COMPS:C10:1,2016-02-01T20:35:00Z,27.1690,-82.9260,1029.72,1111122 
COMPS,ioos:station:USF.COMPS:C10:1,2016-02-01T21:05:00Z,27.1690,-82.9260,1029.67,1111122 
COMPS,ioos:station:USF.COMPS:C10:1,2016-02-01T21:35:00Z,27.1690,-82.9260,1029.82,1111122 
COMPS,ioos:station:USF.COMPS:C10:1,2016-02-01T22:05:00Z,27.1690,-82.9260,1029.82,1111122 
COMPS,ioos:station:USF.COMPS:C10:1,2016-02-01T22:35:00Z,27.1690,-82.9260,1029.83,1111122 
COMPS,ioos:station:USF.COMPS:C10:1,2016-02-01T23:05:00Z,27.1690,-82.9260,1029.82,1111122 
COMPS,ioos:station:USF.COMPS:C10:1,2016-02-01T23:35:00Z,27.1690,-82.9260,1029.95,1111122 
COMPS,ioos:station:USF.COMPS:C10:1,2016-02-02T00:05:00Z,27.1690,-82.9260,1030.22,1111122 
COMPS,ioos:station:USF.COMPS:C10:1,2016-02-02T00:35:00Z,27.1690,-82.9260,1030.23,1111122 
COMPS,ioos:station:USF.COMPS:C10:1,2016-02-02T01:05:00Z,27.1690,-82.9260,1030.23,1111122 
COMPS,ioos:station:USF.COMPS:C10:1,2016-02-02T01:35:00Z,27.1690,-82.9260,1030.44,1111122 
COMPS,ioos:station:USF.COMPS:C10:1,2016-02-02T02:05:00Z,27.1690,-82.9260,1030.64,1111122 
COMPS,ioos:station:USF.COMPS:C10:1,2016-02-02T02:35:00Z,27.1690,-82.9260,1030.85,1111122 
COMPS,ioos:station:USF.COMPS:C10:1,2016-02-02T05:05:00Z,27.1690,-82.9260,1030.85,1111122 
COMPS,ioos:station:USF.COMPS:C10:1,2016-02-02T05:35:00Z,27.1690,-82.9260,1030.85,1111122 
COMPS,ioos:station:USF.COMPS:C10:1,2016-02-02T06:05:00Z,27.1690,-82.9260,1030.71,1111122 
COMPS,ioos:station:USF.COMPS:C10:1,2016-02-02T06:35:00Z,27.1690,-82.9260,1030.67,1111122 
COMPS,ioos:station:USF.COMPS:C10:1,2016-02-02T07:05:00Z,27.1690,-82.9260,1030.65,1111122 
COMPS,ioos:station:USF.COMPS:C10:1,2016-02-02T07:35:00Z,27.1690,-82.9260,1030.39,1111122 
COMPS,ioos:station:USF.COMPS:C10:1,2016-02-02T08:05:00Z,27.1690,-82.9260,1030.12,1111122 
COMPS,ioos:station:USF.COMPS:C10:1,2016-02-02T08:35:00Z,27.1690,-82.9260,1029.97,1111122 
COMPS,ioos:station:USF.COMPS:C10:1,2016-02-02T09:05:00Z,27.1690,-82.9260,1029.84,1111122 
COMPS,ioos:station:USF.COMPS:C10:1,2016-02-02T09:35:00Z,27.1690,-82.9260,1029.84,1111122 
COMPS,ioos:station:USF.COMPS:C10:1,2016-02-02T10:05:00Z,27.1690,-82.9260,1029.92,1111122 
COMPS,ioos:station:USF.COMPS:C10:1,2016-02-02T10:35:00Z,27.1690,-82.9260,1030.11,1111122 
COMPS,ioos:station:USF.COMPS:C10:1,2016-02-02T11:05:00Z,27.1690,-82.9260,1030.36,1111122 
COMPS,ioos:station:USF.COMPS:C10:1,2016-02-02T11:35:00Z,27.1690,-82.9260,1030.64,1111122 
COMPS,ioos:station:USF.COMPS:C10:1,2016-02-02T12:05:00Z,27.1690,-82.9260,1030.8,1111122 
COMPS,ioos:station:USF.COMPS:C10:1,2016-02-02T12:35:00Z,27.1690,-82.9260,1030.91,1111122 
COMPS,ioos:station:USF.COMPS:C10:1,2016-02-02T13:05:00Z,27.1690,-82.9260,1031.29,1111122 
COMPS,ioos:station:USF.COMPS:C10:1,2016-02-02T13:35:00Z,27.1690,-82.9260,1031.71,1111122 
COMPS,ioos:station:USF.COMPS:C10:1,2016-02-02T14:05:00Z,27.1690,-82.9260,1031.75,1111122 
COMPS,ioos:station:USF.COMPS:C10:1,2016-02-02T14:35:00Z,27.1690,-82.9260,1031.95,1111122 
COMPS,ioos:station:USF.COMPS:C10:1,2016-02-02T15:05:00Z,27.1690,-82.9260,1032.2,1111122 
COMPS,ioos:station:USF.COMPS:C10:1,2016-02-02T15:35:00Z,27.1690,-82.9260,1032.61,1111122 
COMPS,ioos:station:USF.COMPS:C10:1,2016-02-02T16:05:00Z,27.1690,-82.9260,1032.59,1111122 
COMPS,ioos:station:USF.COMPS:C10:1,2016-02-02T16:35:00Z,27.1690,-82.9260,1032.57,1111122 
COMPS,ioos:station:USF.COMPS:C10:1,2016-02-02T17:05:00Z,27.1690,-82.9260,1032.42,1111122 
COMPS,ioos:station:USF.COMPS:C10:1,2016-02-02T17:35:00Z,27.1690,-82.9260,1031.91,1111122 
COMPS,ioos:station:USF.COMPS:C10:1,2016-02-02T18:05:00Z,27.1690,-82.9260,1031.46,1111122 
COMPS,ioos:station:USF.COMPS:C10:1,2016-02-02T18:35:00Z,27.1690,-82.9260,1031.17,1111122 
COMPS,ioos:station:USF.COMPS:C10:1,2016-02-02T19:05:00Z,27.1690,-82.9260,1030.92,1111122 
COMPS,ioos:station:USF.COMPS:C10:1,2016-02-02T19:35:00Z,27.1690,-82.9260,1030.89,1111122 
COMPS,ioos:station:USF.COMPS:C10:1,2016-02-03T02:05:00Z,27.1690,-82.9260,1031.7,1111122 
COMPS,ioos:station:USF.COMPS:C10:1,2016-02-03T02:35:00Z,27.1690,-82.9260,1031.73,1111122 
COMPS,ioos:station:USF.COMPS:C10:1,2016-02-03T05:05:00Z,27.1690,-82.9260,1030.78,1111122 
COMPS,ioos:station:USF.COMPS:C10:1,2016-02-03T05:35:00Z,27.1690,-82.9260,1030.51,1111122 
COMPS,ioos:station:USF.COMPS:C10:1,2016-02-03T06:05:00Z,27.1690,-82.9260,1030.52,1111122 
COMPS,ioos:station:USF.COMPS:C10:1,2016-02-03T06:35:00Z,27.1690,-82.9260,1030.49,1111122 
COMPS,ioos:station:USF.COMPS:C10:1,2016-02-03T07:05:00Z,27.1690,-82.9260,1030.29,1111122 
COMPS,ioos:station:USF.COMPS:C10:1,2016-02-03T07:35:00Z,27.1690,-82.9260,1030.24,1111122 
COMPS,ioos:station:USF.COMPS:C10:1,2016-02-03T08:05:00Z,27.1690,-82.9260,1030.1,1111122 
COMPS,ioos:station:USF.COMPS:C10:1,2016-02-03T08:35:00Z,27.1690,-82.9260,1030.25,1111122 
COMPS,ioos:station:USF.COMPS:C10:1,2016-02-03T09:05:00Z,27.1690,-82.9260,1030.24,1111122 
COMPS,ioos:station:USF.COMPS:C10:1,2016-02-03T09:35:00Z,27.1690,-82.9260,1030.23,1111122 
COMPS,ioos:station:USF.COMPS:C10:1,2016-02-03T10:05:00Z,27.1690,-82.9260,1030.43,1111122 
COMPS,ioos:station:USF.COMPS:C10:1,2016-02-03T10:35:00Z,27.1690,-82.9260,1030.65,1111122 
COMPS,ioos:station:USF.COMPS:C10:1,2016-02-03T11:05:00Z,27.1690,-82.9260,1030.66,1111122 
COMPS,ioos:station:USF.COMPS:C10:1,2016-02-03T11:35:00Z,27.1690,-82.9260,1030.91,1111122 
COMPS,ioos:station:USF.COMPS:C10:1,2016-02-03T12:05:00Z,27.1690,-82.9260,1031.17,1111122 
COMPS,ioos:station:USF.COMPS:C10:1,2016-02-03T12:35:00Z,27.1690,-82.9260,1031.16,1111122 
COMPS,ioos:station:USF.COMPS:C10:1,2016-02-03T13:05:00Z,27.1690,-82.9260,1031.17,1111122 
COMPS,ioos:station:USF.COMPS:C10:1,2016-02-03T13:35:00Z,27.1690,-82.9260,1031.41,1111122 
COMPS,ioos:station:USF.COMPS:C10:1,2016-02-03T14:05:00Z,27.1690,-82.9260,1031.68,1111122 
COMPS,ioos:station:USF.COMPS:C10:1,2016-02-03T14:35:00Z,27.1690,-82.9260,1031.84,1111122 
COMPS,ioos:station:USF.COMPS:C10:1,2016-02-03T15:05:00Z,27.1690,-82.9260,1032.14,1111122 
COMPS,ioos:station:USF.COMPS:C10:1,2016-02-03T15:35:00Z,27.1690,-82.9260,1032.02,1111122 
COMPS,ioos:station:USF.COMPS:C10:1,2016-02-03T16:05:00Z,27.1690,-82.9260,1031.84,1111122 
COMPS,ioos:station:USF.COMPS:C10:1,2016-02-03T16:35:00Z,27.1690,-82.9260,1031.47,1111122 
COMPS,ioos:station:USF.COMPS:C10:1,2016-02-03T17:05:00Z,27.1690,-82.9260,1031.35,1111122 
COMPS,ioos:station:USF.COMPS:C10:1,2016-02-03T17:35:00Z,27.1690,-82.9260,1031.0,1111122 
COMPS,ioos:station:USF.COMPS:C10:1,2016-02-03T18:05:00Z,27.1690,-82.9260,1030.79,1111122 
COMPS,ioos:station:USF.COMPS:C10:1,2016-02-03T18:35:00Z,27.1690,-82.9260,1030.36,1111122 
COMPS,ioos:station:USF.COMPS:C10:1,2016-02-03T19:05:00Z,27.1690,-82.9260,1030.22,1111122 
COMPS,ioos:station:USF.COMPS:C10:1,2016-02-03T19:35:00Z,27.1690,-82.9260,1030.17,1111122 
COMPS,ioos:station:USF.COMPS:C10:1,2016-02-03T20:05:00Z,27.1690,-82.9260,1030.22,1111122 
COMPS,ioos:station:USF.COMPS:C10:1,2016-02-03T20:35:00Z,27.1690,-82.9260,1030.2,1111122 
COMPS,ioos:station:USF.COMPS:C10:1,2016-02-03T21:05:00Z,27.1690,-82.9260,1030.36,1111122 
COMPS,ioos:station:USF.COMPS:C10:1,2016-02-03T21:35:00Z,27.1690,-82.9260,1030.49,1111122 
COMPS,ioos:station:USF.COMPS:C10:1,2016-02-03T22:05:00Z,27.1690,-82.9260,1030.63,1111122 
COMPS,ioos:station:USF.COMPS:C10:1,2016-02-03T22:35:00Z,27.1690,-82.9260,1030.76,1111122 
COMPS,ioos:station:USF.COMPS:C10:1,2016-02-03T23:05:00Z,27.1690,-82.9260,1031.04,1111122 
COMPS,ioos:station:USF.COMPS:C10:1,2016-02-03T23:35:00Z,27.1690,-82.9260,1031.15,1111122 
COMPS,ioos:station:USF.COMPS:C10:1,2016-02-04T00:05:00Z,27.1690,-82.9260,1031.17,1111122 
COMPS,ioos:station:USF.COMPS:C10:1,2016-02-04T00:35:00Z,27.1690,-82.9260,1031.28,1111122 
COMPS,ioos:station:USF.COMPS:C10:1,2016-02-04T01:05:00Z,27.1690,-82.9260,1031.41,1111122 
COMPS,ioos:station:USF.COMPS:C10:1,2016-02-04T01:35:00Z,27.1690,-82.9260,1031.32,1111122 
COMPS,ioos:station:USF.COMPS:C10:1,2016-02-04T05:05:00Z,27.1690,-82.9260,1031.27,1111122 
COMPS,ioos:station:USF.COMPS:C10:1,2016-02-04T05:35:00Z,27.1690,-82.9260,1030.96,1111122 
COMPS,ioos:station:USF.COMPS:C10:1,2016-02-04T06:05:00Z,27.1690,-82.9260,1030.84,1111122 
COMPS,ioos:station:USF.COMPS:C10:1,2016-02-04T06:35:00Z,27.1690,-82.9260,1030.81,1111122 
COMPS,ioos:station:USF.COMPS:C10:1,2016-02-04T07:05:00Z,27.1690,-82.9260,1030.84,1111122 
COMPS,ioos:station:USF.COMPS:C10:1,2016-02-04T07:35:00Z,27.1690,-82.9260,1030.69,1111122 
COMPS,ioos:station:USF.COMPS:C10:1,2016-02-04T08:05:00Z,27.1690,-82.9260,1030.58,1111122 
COMPS,ioos:station:USF.COMPS:C10:1,2016-02-04T08:35:00Z,27.1690,-82.9260,1030.47,1111122 
COMPS,ioos:station:USF.COMPS:C10:1,2016-02-04T09:05:00Z,27.1690,-82.9260,1030.26,1111122 
COMPS,ioos:station:USF.COMPS:C10:1,2016-02-04T09:35:00Z,27.1690,-82.9260,1030.03,1111122 
COMPS,ioos:station:USF.COMPS:C10:1,2016-02-04T10:05:00Z,27.1690,-82.9260,1029.98,1111122 
COMPS,ioos:station:USF.COMPS:C10:1,2016-02-04T10:35:00Z,27.1690,-82.9260,1029.97,1111122 
COMPS,ioos:station:USF.COMPS:C10:1,2016-02-04T11:05:00Z,27.1690,-82.9260,1029.82,1111122 
COMPS,ioos:station:USF.COMPS:C10:1,2016-02-04T11:35:00Z,27.1690,-82.9260,1029.95,1111122 
COMPS,ioos:station:USF.COMPS:C10:1,2016-02-04T12:05:00Z,27.1690,-82.9260,1030.01,1111122 
COMPS,ioos:station:USF.COMPS:C10:1,2016-02-04T12:35:00Z,27.1690,-82.9260,1030.2,1111122 
COMPS,ioos:station:USF.COMPS:C10:1,2016-02-04T13:05:00Z,27.1690,-82.9260,1030.27,1111122 
COMPS,ioos:station:USF.COMPS:C10:1,2016-02-04T13:35:00Z,27.1690,-82.9260,1030.69,1111122 
COMPS,ioos:station:USF.COMPS:C10:1,2016-02-04T14:05:00Z,27.1690,-82.9260,1031.02,1111122 
COMPS,ioos:station:USF.COMPS:C10:1,2016-02-04T14:35:00Z,27.1690,-82.9260,1030.96,1111122 
COMPS,ioos:station:USF.COMPS:C10:1,2016-02-04T15:05:00Z,27.1690,-82.9260,1031.39,1111122 
COMPS,ioos:station:USF.COMPS:C10:1,2016-02-04T15:35:00Z,27.1690,-82.9260,1031.42,1111122 
COMPS,ioos:station:USF.COMPS:C10:1,2016-02-04T16:05:00Z,27.1690,-82.9260,1031.46,1111122 
COMPS,ioos:station:USF.COMPS:C10:1,2016-02-04T16:35:00Z,27.1690,-82.9260,1031.19,1111122 
COMPS,ioos:station:USF.COMPS:C10:1,2016-02-04T17:05:00Z,27.1690,-82.9260,1030.73,1111122 
COMPS,ioos:station:USF.COMPS:C10:1,2016-02-04T17:35:00Z,27.1690,-82.9260,1030.26,1111122 
COMPS,ioos:station:USF.COMPS:C10:1,2016-02-04T18:05:00Z,27.1690,-82.9260,1029.98,1111122 
COMPS,ioos:station:USF.COMPS:C10:1,2016-02-04T18:35:00Z,27.1690,-82.9260,1029.35,1111122 
COMPS,ioos:station:USF.COMPS:C10:1,2016-02-04T19:05:00Z,27.1690,-82.9260,1029.31,1111122 
COMPS,ioos:station:USF.COMPS:C10:1,2016-02-04T19:35:00Z,27.1690,-82.9260,1029.28,1111122 
COMPS,ioos:station:USF.COMPS:C10:1,2016-02-04T20:05:00Z,27.1690,-82.9260,1029.3,1111122 
COMPS,ioos:station:USF.COMPS:C10:1,2016-02-04T20:35:00Z,27.1690,-82.9260,1029.16,1111122 
COMPS,ioos:station:USF.COMPS:C10:1,2016-02-04T21:05:00Z,27.1690,-82.9260,1029.05,1111122 
COMPS,ioos:station:USF.COMPS:C10:1,2016-02-04T21:35:00Z,27.1690,-82.9260,1029.59,1111122 
COMPS,ioos:station:USF.COMPS:C10:1,2016-02-04T22:05:00Z,27.1690,-82.9260,1030.35,1111122 
COMPS,ioos:station:USF.COMPS:C10:1,2016-02-04T22:35:00Z,27.1690,-82.9260,1030.71,1111122 
COMPS,ioos:station:USF.COMPS:C10:1,2016-02-04T23:05:00Z,27.1690,-82.9260,1031.33,1111122 
COMPS,ioos:station:USF.COMPS:C10:1,2016-02-04T23:35:00Z,27.1690,-82.9260,1031.7,1111122 
COMPS,ioos:station:USF.COMPS:C10:1,2016-02-05T00:05:00Z,27.1690,-82.9260,1031.74,1111122 
COMPS,ioos:station:USF.COMPS:C10:1,2016-02-05T00:35:00Z,27.1690,-82.9260,1031.99,1111122 
COMPS,ioos:station:USF.COMPS:C10:1,2016-02-05T02:05:00Z,27.1690,-82.9260,1033.45,1111122 
COMPS,ioos:station:USF.COMPS:C10:1,2016-02-05T02:35:00Z,27.1690,-82.9260,1033.36,1111122 
COMPS,ioos:station:USF.COMPS:C10:1,2016-02-05T03:05:00Z,27.1690,-82.9260,1033.49,1111122 
COMPS,ioos:station:USF.COMPS:C10:1,2016-02-05T03:35:00Z,27.1690,-82.9260,1034.26,1111122 
COMPS,ioos:station:USF.COMPS:C10:1,2016-02-05T05:05:00Z,27.1690,-82.9260,1034.8,1111122 
COMPS,ioos:station:USF.COMPS:C10:1,2016-02-05T05:35:00Z,27.1690,-82.9260,1034.72,1111122 
COMPS,ioos:station:USF.COMPS:C10:1,2016-02-05T09:05:00Z,27.1690,-82.9260,1034.96,1111122 
COMPS,ioos:station:USF.COMPS:C10:1,2016-02-05T09:35:00Z,27.1690,-82.9260,1035.08,1111122 
COMPS,ioos:station:USF.COMPS:C10:1,2016-02-05T11:05:00Z,27.1690,-82.9260,1036.04,1111122 
COMPS,ioos:station:USF.COMPS:C10:1,2016-02-05T11:35:00Z,27.1690,-82.9260,1036.44,1111122 
COMPS,ioos:station:USF.COMPS:C10:1,2016-02-05T14:05:00Z,27.1690,-82.9260,1038.16,1111122 
COMPS,ioos:station:USF.COMPS:C10:1,2016-02-05T14:35:00Z,27.1690,-82.9260,1038.28,1111122 
COMPS,ioos:station:USF.COMPS:C10:1,2016-02-05T15:05:00Z,27.1690,-82.9260,1038.51,1111122 
COMPS,ioos:station:USF.COMPS:C10:1,2016-02-05T15:35:00Z,27.1690,-82.9260,1038.52,1111122 
COMPS,ioos:station:USF.COMPS:C10:1,2016-02-05T16:05:00Z,27.1690,-82.9260,1038.36,1111122 
COMPS,ioos:station:USF.COMPS:C10:1,2016-02-05T16:35:00Z,27.1690,-82.9260,1038.14,1111122 
COMPS,ioos:station:USF.COMPS:C10:1,2016-02-05T17:05:00Z,27.1690,-82.9260,1038.0,1111122 
COMPS,ioos:station:USF.COMPS:C10:1,2016-02-05T17:35:00Z,27.1690,-82.9260,1037.66,1111122 
COMPS,ioos:station:USF.COMPS:C10:1,2016-02-05T18:05:00Z,27.1690,-82.9260,1037.16,1111122 
COMPS,ioos:station:USF.COMPS:C10:1,2016-02-05T18:35:00Z,27.1690,-82.9260,1036.67,1111122 
COMPS,ioos:station:USF.COMPS:C10:1,2016-02-05T19:05:00Z,27.1690,-82.9260,1036.29,1111122 
COMPS,ioos:station:USF.COMPS:C10:1,2016-02-05T19:35:00Z,27.1690,-82.9260,1036.14,1111122 
COMPS,ioos:station:USF.COMPS:C10:1,2016-02-05T20:05:00Z,27.1690,-82.9260,1035.77,1111122 
COMPS,ioos:station:USF.COMPS:C10:1,2016-02-05T20:35:00Z,27.1690,-82.9260,1035.67,1111122 
COMPS,ioos:station:USF.COMPS:C10:1,2016-02-05T21:05:00Z,27.1690,-82.9260,1035.54,1111122 
COMPS,ioos:station:USF.COMPS:C10:1,2016-02-05T21:35:00Z,27.1690,-82.9260,1035.45,1111122 
COMPS,ioos:station:USF.COMPS:C10:1,2016-02-05T22:05:00Z,27.1690,-82.9260,1035.55,1111122 
COMPS,ioos:station:USF.COMPS:C10:1,2016-02-05T22:35:00Z,27.1690,-82.9260,1035.61,1111122 
COMPS,ioos:station:USF.COMPS:C10:1,2016-02-05T23:05:00Z,27.1690,-82.9260,1035.69,1111122 
COMPS,ioos:station:USF.COMPS:C10:1,2016-02-05T23:35:00Z,27.1690,-82.9260,1036.02,1111122 
COMPS,ioos:station:USF.COMPS:C10:1,2016-02-06T00:05:00Z,27.1690,-82.9260,1036.22,1111122 
COMPS,ioos:station:USF.COMPS:C10:1,2016-02-06T00:35:00Z,27.1690,-82.9260,1036.48,1111122 
COMPS,ioos:station:USF.COMPS:C10:1,2016-02-06T01:05:00Z,27.1690,-82.9260,1036.73,1111122 
COMPS,ioos:station:USF.COMPS:C10:1,2016-02-06T01:35:00Z,27.1690,-82.9260,1036.86,1111122 
COMPS,ioos:station:USF.COMPS:C10:1,2016-02-06T06:05:00Z,27.1690,-82.9260,1035.58,1111122 
COMPS,ioos:station:USF.COMPS:C10:1,2016-02-06T06:35:00Z,27.1690,-82.9260,1035.33,1111122 
COMPS,ioos:station:USF.COMPS:C10:1,2016-02-06T12:05:00Z,27.1690,-82.9260,1034.95,1111122 
COMPS,ioos:station:USF.COMPS:C10:1,2016-02-06T12:35:00Z,27.1690,-82.9260,1034.9,1111122 
COMPS,ioos:station:USF.COMPS:C10:1,2016-02-06T13:05:00Z,27.1690,-82.9260,1034.95,1111122 
COMPS,ioos:station:USF.COMPS:C10:1,2016-02-06T13:35:00Z,27.1690,-82.9260,1035.0,1111122 
COMPS,ioos:station:USF.COMPS:C10:1,2016-02-06T14:05:00Z,27.1690,-82.9260,1035.4,1111122 
COMPS,ioos:station:USF.COMPS:C10:1,2016-02-06T14:35:00Z,27.1690,-82.9260,1035.42,1111122 
COMPS,ioos:station:USF.COMPS:C10:1,2016-02-06T15:05:00Z,27.1690,-82.9260,1035.76,1111122 
COMPS,ioos:station:USF.COMPS:C10:1,2016-02-06T15:35:00Z,27.1690,-82.9260,1036.11,1111122 
COMPS,ioos:station:USF.COMPS:C10:1,2016-02-06T16:05:00Z,27.1690,-82.9260,1035.92,1111122 
COMPS,ioos:station:USF.COMPS:C10:1,2016-02-06T16:35:00Z,27.1690,-82.9260,1035.48,1111122 
COMPS,ioos:station:USF.COMPS:C10:1,2016-02-06T17:05:00Z,27.1690,-82.9260,1034.99,1111122 
COMPS,ioos:station:USF.COMPS:C10:1,2016-02-06T17:35:00Z,27.1690,-82.9260,1034.42,1111122 
COMPS,ioos:station:USF.COMPS:C10:1,2016-02-06T18:05:00Z,27.1690,-82.9260,1034.18,1111122 
COMPS,ioos:station:USF.COMPS:C10:1,2016-02-06T18:35:00Z,27.1690,-82.9260,1034.11,1111122 
COMPS,ioos:station:USF.COMPS:C10:1,2016-02-06T19:05:00Z,27.1690,-82.9260,1033.9,1111122 
COMPS,ioos:station:USF.COMPS:C10:1,2016-02-06T19:35:00Z,27.1690,-82.9260,1033.5,1111122 
COMPS,ioos:station:USF.COMPS:C10:1,2016-02-06T20:05:00Z,27.1690,-82.9260,1033.14,1111122 
COMPS,ioos:station:USF.COMPS:C10:1,2016-02-06T20:35:00Z,27.1690,-82.9260,1033.01,1111122 
COMPS,ioos:station:USF.COMPS:C10:1,2016-02-06T21:05:00Z,27.1690,-82.9260,1033.35,1111122 
COMPS,ioos:station:USF.COMPS:C10:1,2016-02-06T21:35:00Z,27.1690,-82.9260,1033.24,1111122 
COMPS,ioos:station:USF.COMPS:C10:1,2016-02-06T22:05:00Z,27.1690,-82.9260,1032.98,1111122 
COMPS,ioos:station:USF.COMPS:C10:1,2016-02-06T22:35:00Z,27.1690,-82.9260,1033.37,1111122 
COMPS,ioos:station:USF.COMPS:C10:1,2016-02-06T23:05:00Z,27.1690,-82.9260,1033.06,1111122 
COMPS,ioos:station:USF.COMPS:C10:1,2016-02-06T23:35:00Z,27.1690,-82.9260,1033.06,1111122 
COMPS,ioos:station:USF.COMPS:C10:1,2016-02-07T00:05:00Z,27.1690,-82.9260,1032.77,1111122 
COMPS,ioos:station:USF.COMPS:C10:1,2016-02-07T00:35:00Z,27.1690,-82.9260,1033.03,1111122 
COMPS,ioos:station:USF.COMPS:C10:1,2016-02-07T01:05:00Z,27.1690,-82.9260,1033.22,1111122 
COMPS,ioos:station:USF.COMPS:C10:1,2016-02-07T01:35:00Z,27.1690,-82.9260,1032.76,1111122 
COMPS,ioos:station:USF.COMPS:C10:1,2016-02-07T05:05:00Z,27.1690,-82.9260,1032.18,1111122 
COMPS,ioos:station:USF.COMPS:C10:1,2016-02-07T05:35:00Z,27.1690,-82.9260,1032.14,1111122 
COMPS,ioos:station:USF.COMPS:C10:1,2016-02-07T06:05:00Z,27.1690,-82.9260,1031.96,1111122 
COMPS,ioos:station:USF.COMPS:C10:1,2016-02-07T06:35:00Z,27.1690,-82.9260,1031.6,1111122 
COMPS,ioos:station:USF.COMPS:C10:1,2016-02-07T07:05:00Z,27.1690,-82.9260,1031.41,1111122 
COMPS,ioos:station:USF.COMPS:C10:1,2016-02-07T07:35:00Z,27.1690,-82.9260,1031.12,1111122 
COMPS,ioos:station:USF.COMPS:C10:1,2016-02-07T08:05:00Z,27.1690,-82.9260,1030.87,1111122 
COMPS,ioos:station:USF.COMPS:C10:1,2016-02-07T08:35:00Z,27.1690,-82.9260,1030.49,1111122 
COMPS,ioos:station:USF.COMPS:C10:1,2016-02-07T09:05:00Z,27.1690,-82.9260,1030.76,1111122 
COMPS,ioos:station:USF.COMPS:C10:1,2016-02-07T09:35:00Z,27.1690,-82.9260,1030.61,1111122 
COMPS,ioos:station:USF.COMPS:C10:1,2016-02-07T10:05:00Z,27.1690,-82.9260,1030.82,1111122 
COMPS,ioos:station:USF.COMPS:C10:1,2016-02-07T10:35:00Z,27.1690,-82.9260,1031.09,1111122 
COMPS,ioos:station:USF.COMPS:C10:1,2016-02-07T11:05:00Z,27.1690,-82.9260,1031.34,1111122 
COMPS,ioos:station:USF.COMPS:C10:1,2016-02-07T11:35:00Z,27.1690,-82.9260,1031.76,1111122 
COMPS,ioos:station:USF.COMPS:C10:1,2016-02-07T12:05:00Z,27.1690,-82.9260,1031.92,1111122 
COMPS,ioos:station:USF.COMPS:C10:1,2016-02-07T12:35:00Z,27.1690,-82.9260,1032.14,1111122 
COMPS,ioos:station:USF.COMPS:C10:1,2016-02-07T13:05:00Z,27.1690,-82.9260,1032.41,1111122 
COMPS,ioos:station:USF.COMPS:C10:1,2016-02-07T13:35:00Z,27.1690,-82.9260,1032.67,1111122 
COMPS,ioos:station:USF.COMPS:C10:1,2016-02-07T14:05:00Z,27.1690,-82.9260,1033.36,1111122 
COMPS,ioos:station:USF.COMPS:C10:1,2016-02-07T14:35:00Z,27.1690,-82.9260,1033.61,1111122 
COMPS,ioos:station:USF.COMPS:C10:1,2016-02-07T15:05:00Z,27.1690,-82.9260,1033.91,1111122 
COMPS,ioos:station:USF.COMPS:C10:1,2016-02-07T15:35:00Z,27.1690,-82.9260,1033.91,1111122 
COMPS,ioos:station:USF.COMPS:C10:1,2016-02-07T16:05:00Z,27.1690,-82.9260,1034.04,1111122 
COMPS,ioos:station:USF.COMPS:C10:1,2016-02-07T16:35:00Z,27.1690,-82.9260,1033.97,1111122 
COMPS,ioos:station:USF.COMPS:C10:1,2016-02-07T17:05:00Z,27.1690,-82.9260,1033.52,1111122 
COMPS,ioos:station:USF.COMPS:C10:1,2016-02-07T17:35:00Z,27.1690,-82.9260,1033.44,1111122 
COMPS,ioos:station:USF.COMPS:C10:1,2016-02-07T18:05:00Z,27.1690,-82.9260,1032.54,1111122 
COMPS,ioos:station:USF.COMPS:C10:1,2016-02-07T18:35:00Z,27.1690,-82.9260,1032.0,1111122 
COMPS,ioos:station:USF.COMPS:C10:1,2016-02-07T19:05:00Z,27.1690,-82.9260,1031.56,1111122 
COMPS,ioos:station:USF.COMPS:C10:1,2016-02-07T19:35:00Z,27.1690,-82.9260,1031.52,1111122 
COMPS,ioos:station:USF.COMPS:C10:1,2016-02-07T20:05:00Z,27.1690,-82.9260,1031.59,1111122 
COMPS,ioos:station:USF.COMPS:C10:1,2016-02-07T20:35:00Z,27.1690,-82.9260,1031.36,1111122 
COMPS,ioos:station:USF.COMPS:C10:1,2016-02-07T21:05:00Z,27.1690,-82.9260,1031.46,1111122 
COMPS,ioos:station:USF.COMPS:C10:1,2016-02-07T21:35:00Z,27.1690,-82.9260,1031.72,1111122 
COMPS,ioos:station:USF.COMPS:C10:1,2016-02-07T22:05:00Z,27.1690,-82.9260,1031.94,1111122 
COMPS,ioos:station:USF.COMPS:C10:1,2016-02-07T22:35:00Z,27.1690,-82.9260,1032.14,1111122 
COMPS,ioos:station:USF.COMPS:C10:1,2016-02-07T23:05:00Z,27.1690,-82.9260,1032.07,1111122 
COMPS,ioos:station:USF.COMPS:C10:1,2016-02-07T23:35:00Z,27.1690,-82.9260,1032.2,1111122 
COMPS,ioos:station:USF.COMPS:C10:1,2016-02-08T00:05:00Z,27.1690,-82.9260,1032.34,1111122 
COMPS,ioos:station:USF.COMPS:C10:1,2016-02-08T00:35:00Z,27.1690,-82.9260,1032.31,1111122 